TimeCST,TemperatureF,Dew PointF,Humidity,Sea Level PressureIn,VisibilityMPH,Wind Direction,Wind SpeedMPH,Gust SpeedMPH,PrecipitationIn,Events,Conditions,WindDirDegrees,DateUTC
12:15 AM,21.2,17.6,86,30.28,10.0,ESE,9.2,-,N/A,,Clear,120,2013-02-01 06:15:00
12:35 AM,21.2,15.8,80,30.29,10.0,SE,8.1,-,N/A,,Clear,140,2013-02-01 06:35:00
12:55 AM,19.4,15.8,86,30.29,10.0,SE,6.9,-,N/A,,Clear,130,2013-02-01 06:55:00
1:15 AM,19.4,15.8,86,30.28,10.0,ESE,6.9,-,N/A,,Clear,120,2013-02-01 07:15:00
1:35 AM,19.4,15.8,86,30.28,10.0,ESE,8.1,-,N/A,,Clear,110,2013-02-01 07:35:00
1:55 AM,19.4,15.8,86,30.29,10.0,SE,5.8,-,N/A,,Clear,130,2013-02-01 07:55:00
2:15 AM,17.6,14.0,86,30.29,10.0,SSE,3.5,-,N/A,,Clear,150,2013-02-01 08:15:00
2:35 AM,19.4,15.8,86,30.29,10.0,Calm,Calm,-,N/A,,Clear,0,2013-02-01 08:35:00
2:55 AM,17.6,14.0,86,30.29,10.0,SSE,4.6,-,N/A,,Clear,160,2013-02-01 08:55:00
3:15 AM,17.6,14.0,86,30.30,10.0,Calm,Calm,-,N/A,,Clear,0,2013-02-01 09:15:00
3:35 AM,17.6,14.0,86,30.29,10.0,Calm,Calm,-,N/A,,Clear,0,2013-02-01 09:35:00
3:55 AM,17.6,14.0,86,30.28,10.0,South,3.5,-,N/A,,Clear,180,2013-02-01 09:55:00
4:15 AM,15.8,14.0,93,30.27,10.0,Calm,Calm,-,N/A,,Clear,0,2013-02-01 10:15:00
4:35 AM,17.6,14.0,86,30.27,10.0,SSE,3.5,-,N/A,,Clear,160,2013-02-01 10:35:00
4:55 AM,15.8,12.2,86,30.27,10.0,SSE,4.6,-,N/A,,Clear,150,2013-02-01 10:55:00
5:15 AM,15.8,14.0,93,30.27,10.0,Calm,Calm,-,N/A,,Clear,0,2013-02-01 11:15:00
5:35 AM,15.8,12.2,86,30.27,10.0,South,4.6,-,N/A,,Clear,190,2013-02-01 11:35:00
5:55 AM,15.8,12.2,86,30.26,10.0,South,3.5,-,N/A,,Clear,190,2013-02-01 11:55:00
6:15 AM,15.8,12.2,86,30.26,10.0,South,3.5,-,N/A,,Clear,180,2013-02-01 12:15:00
6:35 AM,15.8,12.2,86,30.26,10.0,SSW,3.5,-,N/A,,Clear,200,2013-02-01 12:35:00
6:55 AM,17.6,14.0,86,30.25,10.0,SSW,3.5,-,N/A,,Clear,200,2013-02-01 12:55:00
7:15 AM,14.0,12.2,93,30.25,10.0,SSW,5.8,-,N/A,,Clear,200,2013-02-01 13:15:00
7:35 AM,14.0,12.2,93,30.24,10.0,South,6.9,-,N/A,,Clear,170,2013-02-01 13:35:00
7:55 AM,14.0,12.2,93,30.24,10.0,SSE,5.8,-,N/A,,Clear,150,2013-02-01 13:55:00
8:15 AM,15.8,12.2,86,30.24,10.0,SSE,4.6,-,N/A,,Clear,150,2013-02-01 14:15:00
8:35 AM,17.6,15.8,93,30.23,10.0,South,3.5,-,N/A,,Clear,190,2013-02-01 14:35:00
8:55 AM,21.2,17.6,86,30.23,10.0,South,4.6,-,N/A,,Clear,180,2013-02-01 14:55:00
9:15 AM,23.0,17.6,80,30.24,10.0,SSW,9.2,-,N/A,,Clear,200,2013-02-01 15:15:00
9:35 AM,26.6,17.6,69,30.23,10.0,SSW,11.5,-,N/A,,Clear,200,2013-02-01 15:35:00
9:55 AM,28.4,17.6,64,30.23,10.0,South,13.8,-,N/A,,Clear,190,2013-02-01 15:55:00
10:15 AM,30.2,19.4,64,30.22,10.0,SSW,12.7,17.3,N/A,,Clear,200,2013-02-01 16:15:00
10:35 AM,32.0,19.4,60,30.22,10.0,South,21.9,-,N/A,,Clear,190,2013-02-01 16:35:00
10:55 AM,32.0,19.4,60,30.21,10.0,SSW,20.7,27.6,N/A,,Clear,200,2013-02-01 16:55:00
11:15 AM,33.8,19.4,56,30.19,10.0,South,23.0,26.5,N/A,,Clear,180,2013-02-01 17:15:00
11:35 AM,33.8,19.4,56,30.18,10.0,South,21.9,29.9,N/A,,Clear,180,2013-02-01 17:35:00
11:55 AM,37.4,21.2,52,30.17,10.0,South,23.0,27.6,N/A,,Clear,180,2013-02-01 17:55:00
12:15 PM,39.2,21.2,49,30.15,10.0,South,20.7,27.6,N/A,,Clear,190,2013-02-01 18:15:00
12:35 PM,41.0,19.4,42,30.14,10.0,South,18.4,-,N/A,,Clear,190,2013-02-01 18:35:00
12:55 PM,42.8,21.2,42,30.13,10.0,SSW,18.4,26.5,N/A,,Clear,200,2013-02-01 18:55:00
1:15 PM,44.6,23.0,43,30.12,10.0,SW,18.4,25.3,N/A,,Clear,220,2013-02-01 19:15:00
1:35 PM,46.4,23.0,40,30.10,10.0,SSW,18.4,-,N/A,,Clear,200,2013-02-01 19:35:00
1:55 PM,46.4,24.8,43,30.09,10.0,SW,16.1,24.2,N/A,,Clear,220,2013-02-01 19:55:00
2:15 PM,48.2,24.8,40,30.07,10.0,SSW,16.1,23.0,N/A,,Clear,210,2013-02-01 20:15:00
2:35 PM,48.2,26.6,43,30.05,10.0,SSW,16.1,25.3,N/A,,Clear,200,2013-02-01 20:35:00
2:55 PM,50.0,26.6,40,30.05,10.0,SSW,15.0,23.0,N/A,,Clear,210,2013-02-01 20:55:00
3:15 PM,50.0,26.6,40,30.04,10.0,SW,13.8,19.6,N/A,,Clear,220,2013-02-01 21:15:00
3:35 PM,51.8,26.6,38,30.03,10.0,SW,10.4,-,N/A,,Clear,220,2013-02-01 21:35:00
3:55 PM,51.8,26.6,38,30.03,10.0,SW,10.4,-,N/A,,Clear,220,2013-02-01 21:55:00
4:15 PM,53.6,26.6,35,30.03,10.0,SW,12.7,18.4,N/A,,Clear,230,2013-02-01 22:15:00
4:35 PM,53.6,24.8,33,30.03,10.0,WSW,11.5,-,N/A,,Clear,240,2013-02-01 22:35:00
4:55 PM,53.6,24.8,33,30.03,10.0,SW,6.9,-,N/A,,Clear,230,2013-02-01 22:55:00
5:15 PM,53.6,23.0,30,30.03,10.0,WSW,4.6,-,N/A,,Clear,240,2013-02-01 23:15:00
5:35 PM,53.6,23.0,30,30.03,10.0,WSW,3.5,-,N/A,,Clear,240,2013-02-01 23:35:00
5:55 PM,50.0,23.0,35,30.03,10.0,Calm,Calm,-,N/A,,Clear,0,2013-02-01 23:55:00
6:15 PM,51.8,23.0,33,30.03,10.0,Calm,Calm,-,N/A,,Clear,0,2013-02-02 00:15:00
6:35 PM,46.4,23.0,40,30.04,10.0,SE,4.6,-,N/A,,Clear,140,2013-02-02 00:35:00
6:55 PM,42.8,21.2,42,30.05,10.0,ESE,6.9,-,N/A,,Clear,120,2013-02-02 00:55:00
7:15 PM,37.4,21.2,52,30.06,10.0,SE,5.8,-,N/A,,Clear,130,2013-02-02 01:15:00
7:55 PM,35.6,21.2,56,30.09,10.0,South,6.9,-,N/A,,Clear,170,2013-02-02 01:55:00
8:15 PM,33.8,21.2,60,30.09,10.0,South,9.2,-,N/A,,Clear,180,2013-02-02 02:15:00
8:35 PM,32.0,21.2,64,30.10,10.0,South,9.2,-,N/A,,Clear,170,2013-02-02 02:35:00
8:55 PM,32.0,21.2,64,30.10,10.0,South,6.9,-,N/A,,Clear,190,2013-02-02 02:55:00
9:15 PM,32.0,21.2,64,30.10,10.0,SSW,8.1,-,N/A,,Clear,200,2013-02-02 03:15:00
9:35 PM,30.2,21.2,69,30.11,10.0,South,8.1,-,N/A,,Clear,190,2013-02-02 03:35:00
9:55 PM,30.2,21.2,69,30.11,10.0,South,9.2,-,N/A,,Clear,190,2013-02-02 03:55:00
10:15 PM,28.4,21.2,74,30.11,10.0,SSW,6.9,-,N/A,,Clear,210,2013-02-02 04:15:00
10:35 PM,28.4,19.4,69,30.12,10.0,SW,8.1,-,N/A,,Clear,220,2013-02-02 04:35:00
10:55 PM,28.4,19.4,69,30.12,10.0,SW,8.1,-,N/A,,Clear,220,2013-02-02 04:55:00
11:15 PM,30.2,21.2,69,30.12,10.0,SW,6.9,-,N/A,,Clear,230,2013-02-02 05:15:00
11:55 PM,32.0,23.0,69,30.13,10.0,West,4.6,-,N/A,,Clear,260,2013-02-02 05:55:00